DAL2151 KMSP-KPDX

Flight info

Callsign DAL2151
Flight time 3h 1m
Altitude 34000
Route SMERF7 SMERF KP06A SWTHN KU06M JKNOX HHOOD6
Aircraft A321/M-SDE3FGHIRWY/LB1

Departure

Time 2026-05-04 23:44
Airport Minneapolis–Saint Paul International Airport / Wold–Chamberlain Field (KMSP)

Arrival

Time 2026-05-05 02:45
Airport Portland International Airport (KPDX)
Time Latitude Longitude Altitude Speed Heading
2026-05-04 22:16 44.88586 -93.21114 856 ft 0 kts 143°
2026-05-04 23:31 44.88601 -93.21133 855 ft 4 kts 112°
2026-05-04 23:31 44.88600 -93.21159 855 ft 4 kts 46°
2026-05-04 23:31 44.88584 -93.21177 855 ft 1 kts 29°
2026-05-04 23:31 44.88580 -93.21180 855 ft 0 kts 29°
2026-05-04 23:34 44.88583 -93.21177 855 ft 4 kts 29°
2026-05-04 23:34 44.88637 -93.21135 855 ft 9 kts 29°
2026-05-04 23:34 44.88685 -93.21165 855 ft 9 kts 301°
2026-05-04 23:35 44.88719 -93.21245 855 ft 10 kts 301°
2026-05-04 23:35 44.88755 -93.21331 855 ft 11 kts 296°
2026-05-04 23:35 44.88765 -93.21436 855 ft 11 kts 249°
2026-05-04 23:35 44.88714 -93.21522 855 ft 11 kts 224°
2026-05-04 23:36 44.88658 -93.21598 855 ft 11 kts 224°
2026-05-04 23:36 44.88605 -93.21670 855 ft 10 kts 226°
2026-05-04 23:36 44.88552 -93.21747 855 ft 12 kts 226°
2026-05-04 23:36 44.88495 -93.21830 855 ft 12 kts 226°
2026-05-04 23:37 44.88439 -93.21912 855 ft 12 kts 225°
2026-05-04 23:37 44.88382 -93.21993 855 ft 12 kts 225°
2026-05-04 23:37 44.88314 -93.22025 855 ft 11 kts 153°
2026-05-04 23:37 44.88268 -93.21943 855 ft 11 kts 123°
2026-05-04 23:38 44.88227 -93.21852 855 ft 11 kts 120°
2026-05-04 23:38 44.88187 -93.21758 855 ft 11 kts 121°
2026-05-04 23:38 44.88146 -93.21662 855 ft 12 kts 121°
2026-05-04 23:38 44.88104 -93.21565 855 ft 12 kts 121°
2026-05-04 23:39 44.88060 -93.21465 855 ft 12 kts 121°
2026-05-04 23:39 44.88014 -93.21358 855 ft 12 kts 121°
2026-05-04 23:39 44.87970 -93.21256 855 ft 12 kts 121°
2026-05-04 23:39 44.87927 -93.21156 855 ft 11 kts 121°
2026-05-04 23:40 44.87888 -93.21065 855 ft 10 kts 121°
2026-05-04 23:40 44.87852 -93.20979 855 ft 10 kts 121°
2026-05-04 23:40 44.87816 -93.20896 855 ft 9 kts 121°
2026-05-04 23:40 44.87783 -93.20819 855 ft 10 kts 121°
2026-05-04 23:41 44.87744 -93.20728 855 ft 12 kts 121°
2026-05-04 23:41 44.87701 -93.20630 855 ft 12 kts 121°
2026-05-04 23:41 44.87654 -93.20521 855 ft 15 kts 121°
2026-05-04 23:41 44.87597 -93.20391 855 ft 16 kts 121°
2026-05-04 23:42 44.87539 -93.20257 855 ft 16 kts 120°
2026-05-04 23:42 44.87488 -93.20136 855 ft 12 kts 121°
2026-05-04 23:42 44.87450 -93.20083 855 ft 6 kts 163°
2026-05-04 23:42 44.87412 -93.20089 855 ft 6 kts 204°
2026-05-04 23:43 44.87376 -93.20124 855 ft 6 kts 243°
2026-05-04 23:43 44.87381 -93.20180 855 ft 9 kts 296°
2026-05-04 23:43 44.87472 -93.20397 855 ft 58 kts 301°
2026-05-04 23:43 44.87808 -93.21177 856 ft 125 kts 301°
2026-05-04 23:44 44.88345 -93.22443 944 ft 165 kts 299°
2026-05-04 23:44 44.88898 -93.23744 1748 ft 147 kts 300°
2026-05-04 23:44 44.89413 -93.24955 2386 ft 146 kts 298°
2026-05-04 23:44 44.89879 -93.26307 2563 ft 163 kts 292°
2026-05-04 23:45 44.90347 -93.27871 2714 ft 182 kts 293°
2026-05-04 23:45 44.90873 -93.29571 2969 ft 196 kts 295°
2026-05-04 23:45 44.91451 -93.31392 3221 ft 212 kts 296°
2026-05-04 23:45 44.92073 -93.33386 3467 ft 232 kts 295°
2026-05-04 23:46 44.92733 -93.35530 3807 ft 248 kts 295°
2026-05-04 23:46 44.93439 -93.37795 4339 ft 256 kts 295°
2026-05-04 23:46 44.94165 -93.40120 5006 ft 259 kts 295°
2026-05-04 23:46 44.94890 -93.42452 5680 ft 261 kts 295°
2026-05-04 23:47 44.95627 -93.44819 6356 ft 263 kts 295°
2026-05-04 23:47 44.96365 -93.47199 7004 ft 266 kts 295°
2026-05-04 23:47 44.97107 -93.49593 7631 ft 268 kts 295°
2026-05-04 23:47 44.97861 -93.52024 8248 ft 271 kts 295°
2026-05-04 23:48 44.98620 -93.54473 8851 ft 273 kts 295°
2026-05-04 23:48 44.99386 -93.56947 9445 ft 276 kts 295°
2026-05-04 23:48 45.00157 -93.59434 10044 ft 278 kts 295°
2026-05-04 23:48 45.00932 -93.61936 10642 ft 279 kts 296°
2026-05-04 23:49 45.01720 -93.64488 11051 ft 289 kts 296°
2026-05-04 23:49 45.02548 -93.67169 11243 ft 306 kts 296°
2026-05-04 23:49 45.03421 -93.69994 11417 ft 322 kts 296°
2026-05-04 23:49 45.04336 -93.72968 11590 ft 337 kts 296°
2026-05-04 23:50 45.05293 -93.76079 11757 ft 352 kts 296°
2026-05-04 23:50 45.06284 -93.79311 11926 ft 365 kts 296°
2026-05-04 23:50 45.07304 -93.82644 12301 ft 371 kts 296°
2026-05-04 23:50 45.08329 -93.86007 12765 ft 374 kts 296°
2026-05-04 23:51 45.09280 -93.89441 13237 ft 377 kts 292°
2026-05-04 23:51 45.10149 -93.92917 13701 ft 379 kts 292°
2026-05-04 23:51 45.11006 -93.96464 14145 ft 382 kts 291°
2026-05-04 23:51 45.11860 -94.00037 14580 ft 385 kts 291°
2026-05-04 23:52 45.12727 -94.03634 15000 ft 387 kts 292°
2026-05-04 23:52 45.13608 -94.07256 15419 ft 390 kts 292°
2026-05-04 23:52 45.14498 -94.10895 15834 ft 392 kts 292°
2026-05-04 23:52 45.15392 -94.14558 16247 ft 395 kts 292°
2026-05-04 23:53 45.16288 -94.18253 16644 ft 397 kts 292°
2026-05-04 23:53 45.17183 -94.21968 17033 ft 399 kts 292°
2026-05-04 23:53 45.18083 -94.25704 17412 ft 402 kts 292°
2026-05-04 23:53 45.18987 -94.29461 17786 ft 404 kts 292°
2026-05-04 23:54 45.19587 -94.31961 18024 ft 406 kts 292°
2026-05-04 23:54 45.20809 -94.37048 18501 ft 409 kts 292°
2026-05-04 23:54 45.21417 -94.39578 18733 ft 410 kts 292°
2026-05-04 23:54 45.22338 -94.43420 19088 ft 412 kts 292°
2026-05-04 23:55 45.23261 -94.47280 19427 ft 414 kts 292°
2026-05-04 23:55 45.24484 -94.52416 19872 ft 416 kts 292°
2026-05-04 23:55 45.26344 -94.60241 20521 ft 420 kts 292°
2026-05-04 23:56 45.26975 -94.62901 20736 ft 422 kts 292°
2026-05-04 23:56 45.27913 -94.66856 21050 ft 423 kts 292°
2026-05-04 23:56 45.28841 -94.70780 21344 ft 425 kts 292°
2026-05-04 23:56 45.29782 -94.74768 21637 ft 427 kts 292°
2026-05-04 23:57 45.30726 -94.78775 21917 ft 429 kts 292°
2026-05-04 23:57 45.31685 -94.82861 22205 ft 431 kts 292°
2026-05-04 23:57 45.32621 -94.86850 22478 ft 432 kts 292°
2026-05-04 23:57 45.33572 -94.90910 22744 ft 434 kts 292°
2026-05-04 23:58 45.34528 -94.94990 23000 ft 436 kts 292°
2026-05-04 23:58 45.35484 -94.99084 23255 ft 437 kts 292°
2026-05-04 23:58 45.36442 -95.03202 23501 ft 439 kts 292°
2026-05-04 23:58 45.37402 -95.07330 23742 ft 441 kts 292°
2026-05-04 23:59 45.38365 -95.11482 23984 ft 443 kts 292°
2026-05-04 23:59 45.39331 -95.15649 24215 ft 444 kts 292°
2026-05-04 23:59 45.40299 -95.19834 24438 ft 446 kts 292°
2026-05-04 23:59 45.41271 -95.24044 24656 ft 448 kts 292°
2026-05-05 00:00 45.42241 -95.28259 24863 ft 449 kts 292°
2026-05-05 00:00 45.42885 -95.31063 25000 ft 450 kts 292°
2026-05-05 00:00 45.44191 -95.36750 25266 ft 453 kts 292°
2026-05-05 00:00 45.45169 -95.41012 25460 ft 454 kts 293°
2026-05-05 00:01 45.46149 -95.45301 25650 ft 456 kts 293°
2026-05-05 00:01 45.47130 -95.49603 25828 ft 457 kts 293°
2026-05-05 00:01 45.48109 -95.53909 26079 ft 457 kts 293°
2026-05-05 00:01 45.49084 -95.58217 26312 ft 457 kts 294°
2026-05-05 00:02 45.50060 -95.62533 26559 ft 456 kts 294°
2026-05-05 00:02 45.51038 -95.66845 26790 ft 456 kts 294°
2026-05-05 00:02 45.52012 -95.71147 27028 ft 456 kts 294°
2026-05-05 00:02 45.52983 -95.75452 27257 ft 456 kts 295°
2026-05-05 00:03 45.53939 -95.79715 27504 ft 455 kts 295°
2026-05-05 00:03 45.54900 -95.84010 27751 ft 455 kts 295°
2026-05-05 00:03 45.55868 -95.88324 27926 ft 456 kts 295°
2026-05-05 00:03 45.56834 -95.92629 28183 ft 455 kts 296°
2026-05-05 00:04 45.57794 -95.96933 28383 ft 456 kts 296°
2026-05-05 00:04 45.58751 -96.01246 28625 ft 455 kts 296°
2026-05-05 00:04 45.59705 -96.05552 28864 ft 454 kts 297°
2026-05-05 00:04 45.60663 -96.09853 29051 ft 454 kts 297°
2026-05-05 00:05 45.61616 -96.14149 29282 ft 454 kts 297°
2026-05-05 00:05 45.62564 -96.18446 29508 ft 453 kts 297°
2026-05-05 00:05 45.63508 -96.22741 29684 ft 454 kts 297°
2026-05-05 00:05 45.64454 -96.27039 29884 ft 453 kts 297°
2026-05-05 00:06 45.65387 -96.31285 30111 ft 452 kts 297°
2026-05-05 00:06 45.66328 -96.35576 30294 ft 452 kts 297°
2026-05-05 00:06 45.67266 -96.39872 30479 ft 452 kts 297°
2026-05-05 00:06 45.68200 -96.44168 30696 ft 451 kts 297°
2026-05-05 00:07 45.69130 -96.48449 30902 ft 451 kts 297°
2026-05-05 00:07 45.70060 -96.52733 31082 ft 450 kts 297°
2026-05-05 00:07 45.70991 -96.57015 31259 ft 450 kts 297°
2026-05-05 00:07 45.71919 -96.61291 31428 ft 450 kts 297°
2026-05-05 00:08 45.72842 -96.65564 31603 ft 450 kts 297°
2026-05-05 00:08 45.73762 -96.69850 31822 ft 448 kts 296°
2026-05-05 00:08 45.74676 -96.74106 32011 ft 447 kts 296°
2026-05-05 00:08 45.75590 -96.78365 32213 ft 447 kts 296°
2026-05-05 00:09 45.76503 -96.82618 32363 ft 446 kts 296°
2026-05-05 00:09 45.77413 -96.86876 32528 ft 446 kts 296°
2026-05-05 00:09 45.78316 -96.91114 32725 ft 445 kts 296°
2026-05-05 00:09 45.79216 -96.95353 32895 ft 444 kts 296°
2026-05-05 00:10 45.80106 -96.99541 33051 ft 444 kts 296°
2026-05-05 00:10 45.81015 -97.03828 33212 ft 444 kts 296°
2026-05-05 00:10 45.81910 -97.08056 33357 ft 444 kts 296°
2026-05-05 00:10 45.82789 -97.12226 33551 ft 442 kts 296°
2026-05-05 00:11 45.83678 -97.16446 33707 ft 441 kts 296°
2026-05-05 00:11 45.84564 -97.20655 33849 ft 441 kts 296°
2026-05-05 00:11 45.85448 -97.24871 33991 ft 441 kts 296°
2026-05-05 00:11 45.86327 -97.29076 34157 ft 440 kts 296°
2026-05-05 00:12 45.87206 -97.33280 34176 ft 440 kts 296°
2026-05-05 00:12 45.88963 -97.41704 34168 ft 440 kts 297°
2026-05-05 00:13 45.90699 -97.50085 34166 ft 440 kts 297°
2026-05-05 00:13 45.92204 -97.58691 34156 ft 453 kts 287°
2026-05-05 00:14 45.92650 -97.67745 34175 ft 460 kts 283°
2026-05-05 00:14 45.92908 -97.76733 34184 ft 459 kts 283°
2026-05-05 00:15 45.93308 -97.86062 34193 ft 457 kts 284°
2026-05-05 00:15 45.93714 -97.95185 34201 ft 458 kts 284°
2026-05-05 00:16 45.94055 -98.04345 34202 ft 459 kts 283°
2026-05-05 00:16 45.94399 -98.13505 34205 ft 459 kts 284°
2026-05-05 00:17 45.94754 -98.22657 34204 ft 459 kts 284°
2026-05-05 00:17 45.95092 -98.31802 34200 ft 459 kts 283°
2026-05-05 00:18 45.95420 -98.40963 34187 ft 459 kts 283°
2026-05-05 00:18 45.95746 -98.50111 34181 ft 459 kts 283°
2026-05-05 00:19 45.96059 -98.59211 34175 ft 459 kts 283°
2026-05-05 00:19 45.96369 -98.68379 34175 ft 459 kts 283°
2026-05-05 00:20 45.96672 -98.77542 34182 ft 459 kts 283°
2026-05-05 00:20 45.96963 -98.86690 34213 ft 458 kts 282°
2026-05-05 00:21 45.97251 -98.95826 34212 ft 458 kts 282°
2026-05-05 00:21 45.97532 -99.04980 34213 ft 457 kts 282°
2026-05-05 00:22 45.97800 -99.14095 34210 ft 456 kts 282°
2026-05-05 00:22 45.98066 -99.23196 34200 ft 455 kts 282°
2026-05-05 00:23 45.98321 -99.32272 34180 ft 454 kts 282°
2026-05-05 00:23 45.98567 -99.41279 34152 ft 453 kts 282°
2026-05-05 00:24 45.98809 -99.50334 34122 ft 453 kts 281°
2026-05-05 00:24 45.99040 -99.59376 34130 ft 452 kts 281°
2026-05-05 00:25 45.99266 -99.68403 34147 ft 451 kts 281°
2026-05-05 00:25 45.99484 -99.77410 34119 ft 451 kts 281°
2026-05-05 00:26 45.99698 -99.86435 34148 ft 450 kts 281°
2026-05-05 00:26 45.99898 -99.95441 34181 ft 450 kts 281°
2026-05-05 00:27 46.00274 -100.04383 34162 ft 446 kts 284°
2026-05-05 00:27 46.00882 -100.13238 34156 ft 445 kts 285°
2026-05-05 00:28 46.01482 -100.22057 34158 ft 446 kts 284°
2026-05-05 00:28 46.02053 -100.30949 34158 ft 446 kts 284°
2026-05-05 00:29 46.02623 -100.39832 34211 ft 445 kts 284°
2026-05-05 00:29 46.03191 -100.48694 34206 ft 445 kts 284°
2026-05-05 00:30 46.03748 -100.57552 34206 ft 444 kts 284°
2026-05-05 00:30 46.04295 -100.66342 34208 ft 443 kts 284°
2026-05-05 00:31 46.04837 -100.75193 34188 ft 443 kts 283°
2026-05-05 00:31 46.05371 -100.84014 34164 ft 442 kts 283°
2026-05-05 00:32 46.05900 -100.92843 34134 ft 442 kts 283°
2026-05-05 00:32 46.06421 -101.01656 34131 ft 441 kts 283°
2026-05-05 00:33 46.06933 -101.10463 34131 ft 441 kts 283°
2026-05-05 00:33 46.07436 -101.19216 34100 ft 441 kts 283°
2026-05-05 00:34 46.07936 -101.28013 34126 ft 440 kts 282°
2026-05-05 00:34 46.08427 -101.36800 34128 ft 441 kts 282°
2026-05-05 00:35 46.08914 -101.45609 34120 ft 441 kts 282°
2026-05-05 00:35 46.09393 -101.54418 34131 ft 441 kts 282°
2026-05-05 00:36 46.09866 -101.63232 34145 ft 441 kts 282°
2026-05-05 00:36 46.10333 -101.72050 34144 ft 441 kts 282°
2026-05-05 00:37 46.10791 -101.80863 34157 ft 441 kts 282°
2026-05-05 00:37 46.11243 -101.89696 34170 ft 441 kts 282°
2026-05-05 00:38 46.11686 -101.98465 34183 ft 441 kts 282°
2026-05-05 00:38 46.12125 -102.07300 34201 ft 441 kts 282°
2026-05-05 00:39 46.12558 -102.16133 34205 ft 442 kts 282°
2026-05-05 00:39 46.12983 -102.24969 34207 ft 442 kts 281°
2026-05-05 00:40 46.13401 -102.33795 34206 ft 441 kts 281°
2026-05-05 00:40 46.13813 -102.42612 34188 ft 441 kts 281°
2026-05-05 00:41 46.14216 -102.51423 34193 ft 440 kts 281°
2026-05-05 00:41 46.14613 -102.60242 34185 ft 439 kts 281°
2026-05-05 00:42 46.14938 -102.67548 34180 ft 439 kts 281°
2026-05-05 00:42 46.15321 -102.76334 34173 ft 439 kts 280°
2026-05-05 00:43 46.15696 -102.85108 34165 ft 438 kts 280°
2026-05-05 00:43 46.16065 -102.93881 34163 ft 438 kts 280°
2026-05-05 00:44 46.16427 -103.02593 34161 ft 437 kts 280°
2026-05-05 00:44 46.16783 -103.11357 34160 ft 437 kts 279°
2026-05-05 00:45 46.17131 -103.20105 34143 ft 437 kts 279°
2026-05-05 00:45 46.17473 -103.28881 34145 ft 437 kts 279°
2026-05-05 00:46 46.17807 -103.37627 34153 ft 437 kts 279°
2026-05-05 00:46 46.18136 -103.46385 34123 ft 437 kts 279°
2026-05-05 00:47 46.18457 -103.55103 34114 ft 437 kts 279°
2026-05-05 00:47 46.18770 -103.63864 34135 ft 437 kts 279°
2026-05-05 00:48 46.19079 -103.72625 34129 ft 437 kts 279°
2026-05-05 00:48 46.19382 -103.81403 34116 ft 438 kts 279°
2026-05-05 00:49 46.19678 -103.90193 34097 ft 439 kts 278°
2026-05-05 00:49 46.19966 -103.98991 34116 ft 439 kts 278°
2026-05-05 00:50 46.20249 -104.07783 34150 ft 438 kts 278°
2026-05-05 00:50 46.20524 -104.16567 34175 ft 438 kts 278°
2026-05-05 00:51 46.20791 -104.25316 34177 ft 438 kts 278°
2026-05-05 00:51 46.21054 -104.34110 34175 ft 438 kts 278°
2026-05-05 00:52 46.21309 -104.42902 34178 ft 437 kts 278°
2026-05-05 00:52 46.21555 -104.51663 34176 ft 437 kts 278°
2026-05-05 00:53 46.21798 -104.60422 34174 ft 436 kts 278°
2026-05-05 00:53 46.22031 -104.69153 34168 ft 435 kts 277°
2026-05-05 00:54 46.22257 -104.77894 34145 ft 434 kts 277°
2026-05-05 00:54 46.22477 -104.86601 34112 ft 434 kts 277°
2026-05-05 00:55 46.22689 -104.95269 34086 ft 434 kts 277°
2026-05-05 00:55 46.22895 -105.03975 34095 ft 434 kts 277°
2026-05-05 00:56 46.23095 -105.12682 34116 ft 433 kts 276°
2026-05-05 00:56 46.23289 -105.21378 34120 ft 433 kts 276°
2026-05-05 00:57 46.23420 -105.30077 34131 ft 434 kts 275°
2026-05-05 00:57 46.23476 -105.38798 34114 ft 434 kts 275°
2026-05-05 00:58 46.23564 -105.47511 34143 ft 433 kts 275°
2026-05-05 00:58 46.23654 -105.56218 34109 ft 434 kts 275°
2026-05-05 00:59 46.23725 -105.64929 34067 ft 434 kts 275°
2026-05-05 00:59 46.23790 -105.73654 34048 ft 434 kts 275°
2026-05-05 01:00 46.23851 -105.82328 34051 ft 435 kts 275°
2026-05-05 01:00 46.23905 -105.91074 34046 ft 436 kts 275°
2026-05-05 01:01 46.23953 -105.99831 34074 ft 436 kts 275°
2026-05-05 01:01 46.23994 -106.08594 34126 ft 435 kts 274°
2026-05-05 01:02 46.24028 -106.17346 34137 ft 436 kts 274°
2026-05-05 01:02 46.24055 -106.26099 34139 ft 435 kts 274°
2026-05-05 01:03 46.24075 -106.34839 34139 ft 435 kts 274°
2026-05-05 01:03 46.24090 -106.43507 34135 ft 434 kts 274°
2026-05-05 01:04 46.24096 -106.52220 34125 ft 433 kts 274°
2026-05-05 01:04 46.24096 -106.65277 34079 ft 433 kts 274°
2026-05-05 01:05 46.24087 -106.73815 34071 ft 432 kts 274°
2026-05-05 01:05 46.24070 -106.82650 34057 ft 432 kts 273°
2026-05-05 01:06 46.24048 -106.91342 34057 ft 432 kts 273°
2026-05-05 01:06 46.24020 -107.00015 34081 ft 431 kts 273°
2026-05-05 01:07 46.23985 -107.08680 34074 ft 432 kts 273°
2026-05-05 01:07 46.23943 -107.17345 34098 ft 431 kts 273°
2026-05-05 01:08 46.23894 -107.26013 34087 ft 432 kts 272°
2026-05-05 01:08 46.23839 -107.34630 34120 ft 431 kts 272°
2026-05-05 01:09 46.23779 -107.43298 34094 ft 432 kts 272°
2026-05-05 01:09 46.23710 -107.51982 34057 ft 433 kts 272°
2026-05-05 01:10 46.23635 -107.60671 34079 ft 432 kts 272°
2026-05-05 01:10 46.23555 -107.69355 34056 ft 433 kts 272°
2026-05-05 01:11 46.23467 -107.78060 34063 ft 433 kts 272°
2026-05-05 01:11 46.23371 -107.86771 34074 ft 433 kts 272°
2026-05-05 01:12 46.23270 -107.95472 34069 ft 434 kts 272°
2026-05-05 01:12 46.23162 -108.04201 34097 ft 434 kts 272°
2026-05-05 01:13 46.23047 -108.12854 34127 ft 434 kts 271°
2026-05-05 01:13 46.22927 -108.21557 34145 ft 434 kts 271°
2026-05-05 01:14 46.22799 -108.30263 34160 ft 433 kts 271°
2026-05-05 01:14 46.22664 -108.38965 34163 ft 433 kts 271°
2026-05-05 01:15 46.22524 -108.47658 34161 ft 433 kts 271°
2026-05-05 01:15 46.22376 -108.56337 34161 ft 432 kts 271°
2026-05-05 01:16 46.22222 -108.65013 34159 ft 431 kts 271°
2026-05-05 01:16 46.22063 -108.73663 34157 ft 431 kts 271°
2026-05-05 01:17 46.21898 -108.82306 34124 ft 431 kts 271°
2026-05-05 01:17 46.21725 -108.90944 34084 ft 431 kts 271°
2026-05-05 01:18 46.21545 -108.99604 34086 ft 431 kts 271°
2026-05-05 01:18 46.21359 -109.08243 34092 ft 430 kts 270°
2026-05-05 01:19 46.21168 -109.16817 34105 ft 430 kts 270°
2026-05-05 01:19 46.20971 -109.25454 34116 ft 430 kts 270°
2026-05-05 01:20 46.20765 -109.34094 34106 ft 430 kts 270°
2026-05-05 01:20 46.20554 -109.42727 34127 ft 430 kts 270°
2026-05-05 01:21 46.20335 -109.51358 34152 ft 430 kts 270°
2026-05-05 01:21 46.20111 -109.60000 34126 ft 431 kts 270°
2026-05-05 01:22 46.19879 -109.68643 34154 ft 431 kts 270°
2026-05-05 01:22 46.19642 -109.77278 34166 ft 431 kts 270°
2026-05-05 01:23 46.19397 -109.85926 34135 ft 432 kts 269°
2026-05-05 01:23 46.19147 -109.94532 34158 ft 431 kts 269°
2026-05-05 01:24 46.18890 -110.03190 34168 ft 431 kts 269°
2026-05-05 01:24 46.18625 -110.11841 34179 ft 431 kts 269°
2026-05-05 01:25 46.18354 -110.20494 34205 ft 431 kts 269°
2026-05-05 01:25 46.18077 -110.29141 34216 ft 431 kts 269°
2026-05-05 01:26 46.17793 -110.37781 34235 ft 431 kts 269°
2026-05-05 01:26 46.17506 -110.46351 34248 ft 431 kts 269°
2026-05-05 01:27 46.17210 -110.54999 34245 ft 431 kts 269°
2026-05-05 01:27 46.16906 -110.63633 34241 ft 431 kts 269°
2026-05-05 01:28 46.16596 -110.72257 34236 ft 430 kts 269°
2026-05-05 01:28 46.16282 -110.80871 34228 ft 430 kts 269°
2026-05-05 01:29 46.15960 -110.89465 34214 ft 429 kts 268°
2026-05-05 01:29 46.15632 -110.98073 34172 ft 430 kts 268°
2026-05-05 01:30 46.15298 -111.06684 34138 ft 430 kts 268°
2026-05-05 01:30 46.14957 -111.15285 34133 ft 429 kts 268°
2026-05-05 01:31 46.14669 -111.22442 34124 ft 430 kts 268°
2026-05-05 01:31 46.14257 -111.32449 34139 ft 430 kts 268°
2026-05-05 01:32 46.13897 -111.41058 34169 ft 430 kts 267°
2026-05-05 01:32 46.13530 -111.49670 34143 ft 431 kts 267°
2026-05-05 01:33 46.13220 -111.56823 34177 ft 430 kts 267°
2026-05-05 01:33 46.12842 -111.65427 34193 ft 430 kts 267°
2026-05-05 01:34 46.12456 -111.74044 34182 ft 431 kts 267°
2026-05-05 01:34 46.12062 -111.82662 34158 ft 431 kts 267°
2026-05-05 01:35 46.11664 -111.91287 34155 ft 431 kts 267°
2026-05-05 01:35 46.11258 -111.99909 34157 ft 431 kts 266°
2026-05-05 01:36 46.10846 -112.08523 34160 ft 431 kts 266°
2026-05-05 01:36 46.10427 -112.17140 34166 ft 431 kts 266°
2026-05-05 01:37 46.10003 -112.25757 34174 ft 431 kts 266°
2026-05-05 01:37 46.09571 -112.34370 34187 ft 431 kts 266°
2026-05-05 01:38 46.09136 -112.42929 34196 ft 431 kts 266°
2026-05-05 01:38 46.08689 -112.51584 34207 ft 431 kts 266°
2026-05-05 01:39 46.08237 -112.60202 34217 ft 431 kts 266°
2026-05-05 01:39 46.07783 -112.68764 34228 ft 431 kts 266°
2026-05-05 01:40 46.07319 -112.77377 34238 ft 431 kts 266°
2026-05-05 01:40 46.06848 -112.85990 34248 ft 431 kts 266°
2026-05-05 01:41 46.06370 -112.94630 34220 ft 432 kts 266°
2026-05-05 01:41 46.05885 -113.03250 34178 ft 433 kts 266°
2026-05-05 01:42 46.05394 -113.11890 34155 ft 433 kts 266°
2026-05-05 01:42 46.04894 -113.20540 34145 ft 433 kts 266°
2026-05-05 01:43 46.04388 -113.29195 34142 ft 434 kts 266°
2026-05-05 01:43 46.03879 -113.37804 34172 ft 434 kts 266°
2026-05-05 01:44 46.03359 -113.46465 34167 ft 435 kts 266°
2026-05-05 01:44 46.02831 -113.55155 34180 ft 435 kts 266°
2026-05-05 01:45 46.02297 -113.63833 34204 ft 435 kts 266°
2026-05-05 01:45 46.01757 -113.72506 34202 ft 436 kts 266°
2026-05-05 01:46 46.01209 -113.81198 34171 ft 436 kts 266°
2026-05-05 01:46 46.00654 -113.89894 34163 ft 436 kts 266°
2026-05-05 01:47 46.00092 -113.98586 34156 ft 436 kts 266°
2026-05-05 01:47 45.99650 -114.07282 34155 ft 436 kts 267°
2026-05-05 01:48 45.99243 -114.15984 34156 ft 436 kts 267°
2026-05-05 01:48 45.98823 -114.24621 34157 ft 436 kts 267°
2026-05-05 01:49 45.98391 -114.33333 34164 ft 436 kts 267°
2026-05-05 01:49 45.97956 -114.42033 34164 ft 436 kts 266°
2026-05-05 01:50 45.97513 -114.50747 34123 ft 437 kts 266°
2026-05-05 01:50 45.97062 -114.59462 34102 ft 437 kts 266°
2026-05-05 01:51 45.96605 -114.68180 34087 ft 437 kts 266°
2026-05-05 01:51 45.96142 -114.76891 34079 ft 438 kts 266°
2026-05-05 01:52 45.95671 -114.85620 34081 ft 438 kts 266°
2026-05-05 01:52 45.95193 -114.94360 34104 ft 439 kts 266°
2026-05-05 01:53 45.94710 -115.03042 34124 ft 439 kts 266°
2026-05-05 01:53 45.94242 -115.11383 34134 ft 439 kts 266°
2026-05-05 01:54 45.93744 -115.20117 34153 ft 439 kts 266°
2026-05-05 01:54 45.93239 -115.28855 34162 ft 439 kts 266°
2026-05-05 01:55 45.92727 -115.37602 34162 ft 439 kts 266°
2026-05-05 01:55 45.92208 -115.46345 34163 ft 439 kts 266°
2026-05-05 01:56 45.91691 -115.54953 34162 ft 439 kts 266°
2026-05-05 01:56 45.91160 -115.63694 34158 ft 439 kts 266°
2026-05-05 01:57 45.90621 -115.72427 34153 ft 439 kts 266°
2026-05-05 01:57 45.90075 -115.81164 34149 ft 439 kts 266°
2026-05-05 01:58 45.89527 -115.89846 34146 ft 439 kts 266°
2026-05-05 01:58 45.88968 -115.98577 34144 ft 439 kts 265°
2026-05-05 01:59 45.88404 -116.07309 34141 ft 439 kts 265°
2026-05-05 01:59 45.87831 -116.16052 34137 ft 439 kts 265°
2026-05-05 02:00 45.87251 -116.24786 34147 ft 439 kts 265°
2026-05-05 02:00 45.86666 -116.33512 34154 ft 439 kts 265°
2026-05-05 02:01 45.86074 -116.42243 34161 ft 439 kts 265°
2026-05-05 02:01 45.85477 -116.50944 34159 ft 439 kts 265°
2026-05-05 02:02 45.84878 -116.59595 34154 ft 438 kts 265°
2026-05-05 02:02 45.84268 -116.68284 34134 ft 438 kts 265°
2026-05-05 02:03 45.83652 -116.76958 34146 ft 436 kts 265°
2026-05-05 02:03 45.83034 -116.85600 34122 ft 436 kts 265°
2026-05-05 02:04 45.82405 -116.94269 34118 ft 435 kts 265°
2026-05-05 02:04 45.81774 -117.02888 34114 ft 434 kts 264°
2026-05-05 02:05 45.81141 -117.11440 34101 ft 434 kts 264°
2026-05-05 02:05 45.80499 -117.20028 34090 ft 433 kts 264°
2026-05-05 02:06 45.79852 -117.28587 34106 ft 431 kts 264°
2026-05-05 02:06 45.79202 -117.37105 34104 ft 429 kts 264°
2026-05-05 02:07 45.78547 -117.45613 34066 ft 429 kts 264°
2026-05-05 02:07 45.77886 -117.54101 34024 ft 428 kts 264°
2026-05-05 02:08 45.77218 -117.62598 34011 ft 428 kts 264°
2026-05-05 02:08 45.76547 -117.71067 34018 ft 428 kts 263°
2026-05-05 02:09 45.75873 -117.79481 34008 ft 428 kts 263°
2026-05-05 02:09 45.75188 -117.87953 34012 ft 428 kts 263°
2026-05-05 02:10 45.74498 -117.96414 34055 ft 427 kts 263°
2026-05-05 02:10 45.73804 -118.04847 34062 ft 427 kts 263°
2026-05-05 02:11 45.73102 -118.13283 34072 ft 427 kts 263°
2026-05-05 02:11 45.72395 -118.21712 34081 ft 427 kts 263°
2026-05-05 02:12 45.71323 -118.34365 34093 ft 427 kts 263°
2026-05-05 02:13 45.70603 -118.42748 34063 ft 428 kts 263°
2026-05-05 02:13 45.69872 -118.51199 34058 ft 428 kts 263°
2026-05-05 02:14 45.69136 -118.59647 34053 ft 428 kts 262°
2026-05-05 02:14 45.68391 -118.68095 34056 ft 428 kts 262°
2026-05-05 02:15 45.67642 -118.76546 34050 ft 428 kts 262°
2026-05-05 02:15 45.66887 -118.84981 33977 ft 426 kts 262°
2026-05-05 02:15 45.66513 -118.89129 33642 ft 425 kts 262°
2026-05-05 02:16 45.66128 -118.93375 33388 ft 426 kts 262°
2026-05-05 02:16 45.65745 -118.97584 33142 ft 427 kts 262°
2026-05-05 02:16 45.65360 -119.01806 32857 ft 428 kts 261°
2026-05-05 02:16 45.64980 -119.05955 32284 ft 427 kts 261°
2026-05-05 02:17 45.64591 -119.10183 31393 ft 431 kts 261°
2026-05-05 02:17 45.64198 -119.14438 30575 ft 433 kts 261°
2026-05-05 02:17 45.63803 -119.18696 30135 ft 433 kts 261°
2026-05-05 02:17 45.63404 -119.22975 29991 ft 436 kts 261°
2026-05-05 02:18 45.63001 -119.27289 29995 ft 439 kts 261°
2026-05-05 02:18 45.62183 -119.35975 29994 ft 442 kts 261°
2026-05-05 02:19 45.61356 -119.44678 29994 ft 441 kts 261°
2026-05-05 02:19 45.60525 -119.53360 29996 ft 441 kts 261°
2026-05-05 02:20 45.59689 -119.62040 29998 ft 440 kts 260°
2026-05-05 02:20 45.58849 -119.70656 30002 ft 441 kts 260°
2026-05-05 02:21 45.58000 -119.79316 30005 ft 441 kts 260°
2026-05-05 02:21 45.57144 -119.87970 30009 ft 440 kts 260°
2026-05-05 02:22 45.56284 -119.96614 30012 ft 440 kts 260°
2026-05-05 02:22 45.55423 -120.05191 30014 ft 434 kts 259°
2026-05-05 02:23 45.54559 -120.13712 30009 ft 434 kts 259°
2026-05-05 02:23 45.53698 -120.22160 30005 ft 434 kts 259°
2026-05-05 02:24 45.52824 -120.30675 30003 ft 434 kts 259°
2026-05-05 02:24 45.51952 -120.39157 29712 ft 428 kts 260°
2026-05-05 02:24 45.51749 -120.43373 29022 ft 424 kts 267°
2026-05-05 02:25 45.51775 -120.47560 28010 ft 424 kts 269°
2026-05-05 02:25 45.51870 -120.51808 26679 ft 430 kts 269°
2026-05-05 02:25 45.51987 -120.56110 25273 ft 437 kts 269°
2026-05-05 02:25 45.52089 -120.60480 24149 ft 442 kts 269°
2026-05-05 02:26 45.52160 -120.64869 23424 ft 442 kts 268°
2026-05-05 02:26 45.52214 -120.69240 22860 ft 440 kts 268°
2026-05-05 02:26 45.52267 -120.73589 22203 ft 436 kts 268°
2026-05-05 02:26 45.52328 -120.77895 21523 ft 432 kts 268°
2026-05-05 02:27 45.52392 -120.82112 20855 ft 429 kts 268°
2026-05-05 02:27 45.52456 -120.86363 20204 ft 425 kts 268°
2026-05-05 02:27 45.52516 -120.90557 19516 ft 422 kts 268°
2026-05-05 02:27 45.52570 -120.94728 18846 ft 418 kts 268°
2026-05-05 02:28 45.52622 -120.98828 18397 ft 408 kts 268°
2026-05-05 02:28 45.52673 -121.02789 18191 ft 392 kts 268°
2026-05-05 02:28 45.52720 -121.06595 18016 ft 376 kts 268°
2026-05-05 02:28 45.52751 -121.10242 17855 ft 361 kts 267°
2026-05-05 02:29 45.52767 -121.13763 17612 ft 349 kts 266°
2026-05-05 02:29 45.52776 -121.17206 17052 ft 348 kts 266°
2026-05-05 02:29 45.52785 -121.20663 16391 ft 350 kts 267°
2026-05-05 02:29 45.52803 -121.24123 15901 ft 346 kts 267°
2026-05-05 02:30 45.52822 -121.27531 15453 ft 342 kts 267°
2026-05-05 02:30 45.52840 -121.30905 15013 ft 339 kts 267°
2026-05-05 02:30 45.52855 -121.34221 14567 ft 337 kts 267°
2026-05-05 02:30 45.52869 -121.37516 14345 ft 326 kts 266°
2026-05-05 02:31 45.52881 -121.40719 13996 ft 321 kts 266°
2026-05-05 02:31 45.52891 -121.43902 13542 ft 320 kts 266°
2026-05-05 02:31 45.52899 -121.47069 13103 ft 319 kts 266°
2026-05-05 02:31 45.52909 -121.50250 12498 ft 322 kts 266°
2026-05-05 02:32 45.52916 -121.53496 11577 ft 334 kts 266°
2026-05-05 02:32 45.52922 -121.56857 10791 ft 341 kts 268°
2026-05-05 02:32 45.52931 -121.60205 10362 ft 333 kts 268°
2026-05-05 02:32 45.52940 -121.63454 10210 ft 319 kts 268°
2026-05-05 02:33 45.52946 -121.66557 10084 ft 306 kts 268°
2026-05-05 02:33 45.52948 -121.68537 10001 ft 297 kts 268°
2026-05-05 02:33 45.52978 -121.72364 9821 ft 292 kts 270°
2026-05-05 02:33 45.53078 -121.75272 9521 ft 293 kts 272°
2026-05-05 02:34 45.53211 -121.78164 9146 ft 292 kts 273°
2026-05-05 02:34 45.53302 -121.80077 8894 ft 291 kts 273°
2026-05-05 02:34 45.53430 -121.82959 8510 ft 291 kts 273°
2026-05-05 02:34 45.53547 -121.85837 8129 ft 290 kts 273°
2026-05-05 02:35 45.53661 -121.88701 7764 ft 289 kts 273°
2026-05-05 02:35 45.53775 -121.91520 7553 ft 279 kts 273°
2026-05-05 02:35 45.53886 -121.94212 7438 ft 265 kts 273°
2026-05-05 02:35 45.53984 -121.96781 7255 ft 254 kts 272°
2026-05-05 02:36 45.54055 -121.99255 7012 ft 247 kts 272°
2026-05-05 02:36 45.54154 -122.01698 6869 ft 246 kts 274°
2026-05-05 02:36 45.54092 -122.04123 6860 ft 245 kts 255°
2026-05-05 02:36 45.53335 -122.06289 6733 ft 245 kts 233°
2026-05-05 02:37 45.52357 -122.08022 6645 ft 234 kts 230°
2026-05-05 02:37 45.51369 -122.09788 6480 ft 223 kts 233°
2026-05-05 02:37 45.50483 -122.11579 6172 ft 219 kts 236°
2026-05-05 02:37 45.49629 -122.13371 5908 ft 217 kts 236°
2026-05-05 02:38 45.48756 -122.15138 5893 ft 218 kts 234°
2026-05-05 02:38 45.47869 -122.16888 5892 ft 218 kts 236°
2026-05-05 02:38 45.47213 -122.18822 5868 ft 218 kts 258°
2026-05-05 02:38 45.47115 -122.20962 5715 ft 216 kts 272°
2026-05-05 02:39 45.47199 -122.23084 5393 ft 214 kts 273°
2026-05-05 02:39 45.47241 -122.25192 5038 ft 214 kts 270°
2026-05-05 02:39 45.47212 -122.27321 4690 ft 213 kts 269°
2026-05-05 02:39 45.47190 -122.29428 4375 ft 211 kts 274°
2026-05-05 02:40 45.47556 -122.31360 4158 ft 195 kts 295°
2026-05-05 02:40 45.48140 -122.33008 3960 ft 177 kts 297°
2026-05-05 02:40 45.48668 -122.34381 3759 ft 165 kts 299°
2026-05-05 02:40 45.49219 -122.35762 3554 ft 159 kts 299°
2026-05-05 02:41 45.49759 -122.37137 3346 ft 158 kts 299°
2026-05-05 02:41 45.50293 -122.38509 3136 ft 158 kts 299°
2026-05-05 02:41 45.50824 -122.39869 2927 ft 157 kts 299°
2026-05-05 02:41 45.51357 -122.41231 2719 ft 157 kts 299°
2026-05-05 02:42 45.51886 -122.42583 2509 ft 156 kts 299°
2026-05-05 02:42 45.52411 -122.43929 2303 ft 155 kts 300°
2026-05-05 02:42 45.52934 -122.45268 2098 ft 154 kts 300°
2026-05-05 02:42 45.53455 -122.46603 1893 ft 154 kts 300°
2026-05-05 02:43 45.53973 -122.47929 1689 ft 153 kts 300°
2026-05-05 02:43 45.54487 -122.49246 1487 ft 152 kts 300°
2026-05-05 02:43 45.55001 -122.50566 1282 ft 152 kts 301°
2026-05-05 02:43 45.55521 -122.51899 1080 ft 155 kts 300°
2026-05-05 02:44 45.56041 -122.53229 872 ft 153 kts 301°
2026-05-05 02:44 45.56554 -122.54543 663 ft 150 kts 301°
2026-05-05 02:44 45.57065 -122.55837 456 ft 149 kts 301°
2026-05-05 02:44 45.57562 -122.57124 257 ft 148 kts 299°
2026-05-05 02:45 45.58059 -122.58412 81 ft 147 kts 300°
2026-05-05 02:45 45.58530 -122.59607 45 ft 121 kts 299°
2026-05-05 02:45 45.58788 -122.60272 45 ft 39 kts 301°
2026-05-05 02:45 45.58882 -122.60456 45 ft 14 kts 330°
2026-05-05 02:46 45.58933 -122.60462 45 ft 0 kts 25°
2026-05-05 02:47 45.58939 -122.60457 45 ft 3 kts 31°
2026-05-05 02:47 45.58976 -122.60420 45 ft 9 kts 36°
2026-05-05 02:48 45.59022 -122.60358 45 ft 10 kts 44°
2026-05-05 02:48 45.59082 -122.60270 45 ft 13 kts 46°
2026-05-05 02:48 45.59149 -122.60171 44 ft 15 kts 46°
2026-05-05 02:48 45.59223 -122.60063 44 ft 16 kts 46°
2026-05-05 02:49 45.59297 -122.59954 45 ft 14 kts 45°
2026-05-05 02:49 45.59360 -122.59858 45 ft 13 kts 61°
2026-05-05 02:49 45.59342 -122.59736 44 ft 14 kts 121°
2026-05-05 02:49 45.59294 -122.59620 44 ft 12 kts 119°
2026-05-05 02:50 45.59251 -122.59508 44 ft 11 kts 121°
2026-05-05 02:50 45.59203 -122.59497 45 ft 7 kts 207°
2026-05-05 02:50 45.59168 -122.59515 45 ft 2 kts 195°
2026-05-05 02:50 45.59162 -122.59517 45 ft 0 kts 195°